Iowa City, IA

8:11 AM CST on December 08, 2019 (GMT -0600)
Iowa City Municipal

Weather History for KIOW - October, 2019

Change the Weather History Date:

Wednesday, October 30, 2019

  Actual Average Record
Temperature  
Mean Temperature 34 °F 47 °F  
Max Temperature 38 °F 57 °F 86 °F (1950)
Min Temperature 30 °F 37 °F 22 °F (1988)
Degree Days  
Heating Degree Days 31 18  
Month to date heating degree days 459 394  
Since 1 July heating degree days 466 506  
Cooling Degree Days 0 0  
Month to date cooling degree days 18 10  
Year to date cooling degree days 1175 912  
Moisture  
Dew Point 27 °F    
Average Humidity 70    
Maximum Humidity 85    
Minimum Humidity 54    
Precipitation  
Precipitation 0.04 in 0.10 in 1.57 in (1971)
Month to date precipitation 2.11 2.78  
Year to date precipitation 39.08 32.32  
Sea Level Pressure  
Sea Level Pressure 30.21 in    
Wind  
Wind Speed 11 mph (North)    
Max Wind Speed 20 mph    
Max Gust Speed 26 mph    
Visibility 5 miles    
Events Snow    
T = Trace of Precipitation, MM = Missing Value Source: NWS Daily Summary

Daily Weather History Graph

Daily Weather History Graph

Search for Another Location

Airport or City:

Astronomy

Oct. 30, 2019 Rise Set
Actual Time 7:35 AM CDT 6:03 PM CDT
Civil Twilight 7:06 AM CDT 6:32 PM CDT
Nautical Twilight 6:34 AM CDT 7:04 PM CDT
Astronomical Twilight 6:01 AM CDT 7:37 PM CDT
Moon 10:20 AM CDT (10/30) 8:09 PM CDT (10/30)
Length of Visible Light 11h 25m
Length of Day
10h 28m
Waxing Crescent, 9% of the Moon is Illuminated
Oct 30
Waxing Crescent
Nov 4
First Quarter
Nov 12
Full
Nov 19
Last Quarter
Nov 26
New

Hourly Weather History & Observations

Time (CDT) Temp. Windchill Dew Point Humidity Pressure Visibility Wind Dir Wind Speed Gust Speed Precip Events Conditions
12:52 AM 30.0 °F - 26.1 °F 85% 30.36 in 10.0 mi Calm Calm - N/A   Clear
1:52 AM 30.0 °F - 27.0 °F 88% 30.35 in 10.0 mi Calm Calm - N/A   Clear
2:52 AM 30.9 °F - 27.0 °F 85% 30.32 in 10.0 mi Calm Calm - N/A   Mostly Cloudy
3:52 AM 32.0 °F 28.7 °F 27.0 °F 82% 30.32 in 10.0 mi North 3.5 mph - N/A   Mostly Cloudy
4:52 AM 34.0 °F 29.8 °F 27.0 °F 75% 30.31 in 10.0 mi North 4.6 mph - N/A   Overcast
5:52 AM 33.1 °F 25.5 °F 25.0 °F 72% 30.31 in 10.0 mi North 9.2 mph - N/A   Overcast
6:52 AM 34.0 °F 26.0 °F 26.1 °F 73% 30.33 in 10.0 mi North 10.4 mph - N/A   Overcast
7:52 AM 34.0 °F 25.0 °F 26.1 °F 73% 30.33 in 10.0 mi NNE 12.7 mph - N/A   Overcast
8:52 AM 35.1 °F 25.5 °F 25.0 °F 67% 30.32 in 10.0 mi NNE 15.0 mph - N/A   Overcast
9:52 AM 36.0 °F 28.0 °F 25.0 °F 64% 30.33 in 10.0 mi NNE 11.5 mph - N/A   Overcast
10:52 AM 37.0 °F 29.3 °F 25.0 °F 62% 30.32 in 10.0 mi North 11.5 mph - N/A   Overcast
11:52 AM 37.9 °F 30.0 °F 25.0 °F 60% 30.31 in 10.0 mi NNE 12.7 mph - N/A   Overcast
12:52 PM 37.9 °F 29.6 °F 24.1 °F 57% 30.27 in 10.0 mi North 13.8 mph - N/A   Overcast
1:52 PM 37.9 °F 30.0 °F 24.1 °F 57% 30.24 in 10.0 mi North 12.7 mph 21.9 mph N/A   Overcast
2:52 PM 37.9 °F 29.2 °F 23.0 °F 55% 30.21 in 10.0 mi North 15.0 mph 25.3 mph N/A   Overcast
3:52 PM 37.0 °F 28.9 °F 23.0 °F 57% 30.21 in 10.0 mi North 12.7 mph - N/A   Overcast
4:47 PM 33.8 °F 24.3 °F 26.6 °F 75% 30.19 in 2.0 mi NNW 13.8 mph 21.9 mph 0.00 in Snow Light Snow
4:52 PM 34.0 °F 24.6 °F 28.0 °F 79% 30.22 in 2.0 mi NNW 13.8 mph - 0.00 in Snow Light Snow
5:52 PM 33.1 °F 23.4 °F 28.0 °F 82% 30.19 in 2.5 mi NNW 13.8 mph 21.9 mph 0.00 in Snow Light Snow
5:55 PM 33.1 °F 22.2 °F 28.0 °F 82% 30.17 in 3.0 mi North 17.3 mph 23.0 mph 0.00 in Snow Light Snow
6:16 PM 33.1 °F 23.9 °F 28.0 °F 82% 30.16 in 2.5 mi North 12.7 mph - 0.00 in Snow Light Snow
6:25 PM 33.1 °F 24.4 °F 28.0 °F 82% 30.16 in 3.0 mi North 11.5 mph - 0.00 in Snow Light Snow
6:35 PM 33.1 °F 24.4 °F 28.0 °F 82% 30.16 in 2.5 mi North 11.5 mph - 0.00 in Snow Light Snow
6:52 PM 33.1 °F 23.0 °F 28.0 °F 82% 30.18 in 3.0 mi North 15.0 mph - 0.00 in Snow Light Snow
7:46 PM 33.8 °F 26.4 °F 28.4 °F 81% 30.15 in 2.5 mi North 9.2 mph - 0.00 in Snow Light Snow
7:52 PM 33.1 °F 24.9 °F 28.9 °F 85% 30.18 in 2.0 mi North 10.4 mph - 0.00 in Snow Light Snow
8:13 PM 33.1 °F 24.9 °F 28.9 °F 85% 30.15 in 2.5 mi North 10.4 mph - 0.00 in Snow Light Snow
8:24 PM 33.1 °F 24.9 °F 28.0 °F 82% 30.14 in 3.0 mi North 10.4 mph - 0.00 in Snow Light Snow
8:31 PM 33.1 °F 23.9 °F 28.0 °F 82% 30.14 in 4.0 mi North 12.7 mph - 0.00 in Snow Light Snow
8:44 PM 33.1 °F 23.9 °F 28.0 °F 82% 30.14 in 4.0 mi North 12.7 mph - 0.00 in Snow Light Snow
8:48 PM 33.8 °F 25.8 °F 28.4 °F 81% 30.15 in 2.5 mi North 10.4 mph - 0.00 in Snow Light Snow
8:52 PM 33.1 °F 24.9 °F 28.9 °F 85% 30.17 in 2.0 mi NNW 10.4 mph 19.6 mph 0.00 in Snow Light Snow
9:01 PM 33.1 °F 23.0 °F 28.0 °F 82% 30.15 in 2.5 mi North 15.0 mph 23.0 mph 0.01 in Snow Light Snow
9:16 PM 33.1 °F 26.9 °F 28.9 °F 85% 30.14 in 2.5 mi North 6.9 mph - 0.01 in Snow Light Snow
9:28 PM 33.1 °F 24.4 °F 28.9 °F 85% 30.14 in 1.5 mi NNW 11.5 mph - 0.01 in Snow Light Snow
9:52 PM 32.0 °F 22.5 °F 28.0 °F 85% 30.16 in 1.8 mi NNW 12.7 mph - 0.02 in Snow Light Snow
10:01 PM 32.0 °F 24.2 °F 28.0 °F 85% 30.14 in 2.0 mi North 9.2 mph 19.6 mph 0.00 in Snow Light Snow
10:16 PM 32.0 °F 24.2 °F 28.0 °F 85% 30.15 in 1.8 mi NNW 9.2 mph - 0.00 in Snow Light Snow
10:26 PM 32.0 °F 23.6 °F 28.0 °F 85% 30.14 in 1.2 mi North 10.4 mph - 0.00 in Snow Light Snow
10:36 PM 32.0 °F 23.6 °F 28.0 °F 85% 30.14 in 1.8 mi NNW 10.4 mph - 0.01 in Snow Light Snow
10:45 PM 32.0 °F 24.8 °F 28.0 °F 85% 30.15 in 2.0 mi NNW 8.1 mph - 0.01 in Snow Light Snow
10:52 PM 32.0 °F 24.2 °F 28.0 °F 85% 30.16 in 1.8 mi NNW 9.2 mph - 0.01 in Snow Light Snow
11:20 PM 30.9 °F 21.2 °F 27.0 °F 85% 30.13 in 1.2 mi NNW 12.7 mph - 0.01 in Snow Light Snow
11:42 PM 30.9 °F 20.7 °F 26.1 °F 82% 30.13 in 1.0 mi NNW 13.8 mph 24.2 mph 0.01 in Snow Light Snow
11:47 PM 30.2 °F 19.3 °F 26.6 °F 86% 30.12 in 1.2 mi North 15.0 mph 24.2 mph 0.01 in Snow Light Snow
11:52 PM 30.0 °F 19.5 °F 26.1 °F 85% 30.14 in 1.5 mi NNW 13.8 mph - 0.01 in Snow Light Snow